Tracking 29606 objects as of 18-Sep-2024
HD Live streaming from Space Station
objects crossing your sky now

FENGYUN 1C DEB

Track FENGYUN 1C DEB now!
10-day predictions


NORAD ID: 30320
Int'l Code: 1999-025AAH
Perigee: 843.8 km
Apogee: 971.2 km
Inclination: 99.3 °
Period: 103.0 minutes
Semi major axis: 7278 km
RCS: 0.0266 m2 (small)
Launch date: May 10, 1999
Source: People's Republic of China (PRC)
Launch site: Taiyaun Space Center, China (TSC)

Note: This is SATELLITE DEBRIS
Your satellite tracking list
Your tracking list is empty




NASA's NSSDC Master Catalog

Two Line Element Set (TLE):
1 30320U 99025AAH 24261.68368748  .00001582  00000-0  11069-2 0  9993
2 30320  99.2526 312.8306 0087487  89.3388  34.4211 13.98108039901039
Source of the keplerian elements: AFSPC